Miscellaneous Local Product
Issued by NWS Hastings, NE

Home | Current Version | Previous Version | Text Only | Print | Product List | Glossary Off
Versions: 1 2 3 4 5 6 7 8 9 10 11 12 13 14 15 16 17 18 19 20 21 22 23 24 25 26 27 28 29 30 31 32 33 34 35 36 37 38 39 40 41 42 43 44 45 46 47 48 49 50

000
AXUS43 KGID 240602
MISGRI

GID CWA HOURLY WEATHER ROUNDUP
NATIONAL WEATHER SERVICE HASTINGS NE
1200 AM CST SAT JAN 24 2015

NOTE: "FAIR" INDICATES FEW OR NO CLOUDS BELOW 12,000 FEET WITH NO
SIGNIFICANT WEATHER AND/OR OBSTRUCTIONS TO VISIBILITY.

...SOUTH CENTRAL NEBRASKA...

CITY           SKY/WX    TMP DP  RH WIND       PRES   REMARKS
GRAND ISLAND   CLEAR     31  26  82 W8        30.06S WCI  23
HASTINGS       CLEAR     30  25  81 W10       30.06R WCI  21
KEARNEY        CLEAR     32  27  80 NW12      30.09R WCI  23
ORD            CLEAR     26  22  84 NW7       30.04F WCI  18
YORK           CLEAR     32  28  86 NW14      30.03S WCI  22
AURORA         CLEAR     32  28  84 W9        30.04S WCI  24
LEXINGTON      CLEAR     33  28  81 NW14      30.12R WCI  23
HOLDREGE       CLEAR     33  27  78 NW10      30.10R WCI  25
HEBRON         CLEAR     32  26  78 NW6       30.05S WCI  26

...NEBRASKA PANHANDLE...

CITY           SKY/WX    TMP DP  RH WIND       PRES   REMARKS
CHADRON        CLEAR     33  25  72 W13       30.13F WCI  24
ALLIANCE       CLEAR     27  24  89 W10       30.14F WCI  17
SCOTTSBLUFF    CLEAR     28  22  78 CALM      30.19F
SIDNEY         CLEAR     31  22  69 W12       30.18F WCI  22

...WESTERN AND NORTH CENTRAL NEBRASKA...

CITY           SKY/WX    TMP DP  RH WIND       PRES   REMARKS
VALENTINE      CLEAR     31  26  82 W9        30.05F WCI  23
AINSWORTH      CLEAR     34  28  79 W6        30.05S WCI  29
ONEILL         CLEAR     33  29  87 W8        30.02F WCI  26
BROKEN BOW     CLEAR     37  28  70 NW17      30.07F WCI  27
IMPERIAL       PTCLDY    32  25  75 W9        30.17F WCI  24
NORTH PLATTE   CLEAR     23  20  88 NW6       30.13F WCI  16
MCCOOK         CLEAR     34  26  72 W10       30.15F WCI  26

...EASTERN NEBRASKA...

CITY           SKY/WX    TMP DP  RH WIND       PRES   REMARKS
NORFOLK        CLEAR     33  29  85 W7        29.99F WCI  27
SO SIOUX CITY  CLEAR     32  29  88 NW9       29.96F WCI  24
TEKAMAH        CLEAR     35  30  82 NW9       29.98S WCI  28
COLUMBUS       CLEAR     32  25  74 W7        30.02F WCI  26
ALBION         CLEAR     34  28  79 NW10      30.02F WCI  26
OMAHA EPPLEY   CLEAR     32  29  88 NW10      29.98S WCI  24
OFFUTT AFB     CLEAR     30  27  90 NW7       29.97S WCI  23
MILLARD        CLEAR     34  30  86 NW5       29.99S WCI  30
LINCOLN        CLEAR     29  25  85 N5        30.02S WCI  24
NEBRASKA CITY  CLEAR     33  27  79 NW8       29.97F WCI  26
BEATRICE       CLEAR     30  27  86 NW9       30.01F WCI  22
FALLS CITY     CLEAR     32  24  72 NW9       29.98S WCI  24

...NORTHERN KANSAS...

CITY           SKY/WX    TMP DP  RH WIND       PRES   REMARKS
GOODLAND       PTCLDY    34  27  75 NW15      30.21S WCI  24
HILL CITY      CLEAR     37  26  64 NW12      30.14R WCI  29
NORTON         CLEAR     34  25  69 W13       30.12S WCI  25
PHILLIPSBURG   CLEAR     37  28  70 W12       30.12R WCI  30
SMITH CENTER   CLEAR     30  27  86 NW5       30.10S WCI  25
BELOIT         CLEAR     30  25  80 W6        30.07S WCI  24
HAYS           CLEAR     39  23  52 NW10      30.12R WCI  32
RUSSELL        CLEAR     35  28  75 W8        30.09R WCI  29
CONCORDIA      CLEAR     32  27  81 W8        30.05S WCI  25
SALINA         CLEAR     35  25  66 NW10      30.07R WCI  27
TOPEKA         CLEAR     34  17  50 W8        30.00S WCI  27



USA.gov is the U.S. government's official web portal to all federal, state and local government web resources and services.